Tracking 20040 objects as of 19-Nov-2019
Live streaming from Space Station
objects crossing your sky now

INTELSAT 2 (PAS 2)

Track INTELSAT 2 (PAS 2) now!
INTELSAT 2 (PAS 2) is classified as:


NORAD ID: 23175
Int'l Code: 1994-040A
Perigee: 36,086.1 km
Apogee: 36,113.2 km
Inclination: 8.2 °
Period: 1,451.8 minutes
Semi major axis: 42470 km
RCS: 6.3096 m2 (large)
Launch date: July 8, 1994
Source: United States (US)
Launch site: FRENCH GUIANA (FRGUI)

12 Ku-band; Asia-Pacific.
aabbcc
Your satellite tracking list
Your tracking list is empty




NASA's NSSDC Master Catalog

Two Line Element Set (TLE):
1 23175U 94040A   19321.39645546  .00000018  00000-0  00000+0 0  9991
2 23175   8.1591  50.5900 0003190 292.2350 113.7797  0.99190398 91844
Source of the keplerian elements: AFSPC